TimeEST,TemperatureF,Dew PointF,Humidity,Sea Level PressureIn,VisibilityMPH,Wind Direction,Wind SpeedMPH,Gust SpeedMPH,PrecipitationIn,Events,Conditions,WindDirDegrees,DateUTC
12:15 AM,-4.0,-9.4,78,30.10,10.0,Calm,Calm,-,N/A,,Clear,0,2013-01-24 05:15:00
12:35 AM,-5.8,-9.4,84,30.10,10.0,Calm,Calm,-,N/A,,Clear,0,2013-01-24 05:35:00
12:55 AM,-5.8,-9.4,84,30.10,10.0,Calm,Calm,-,N/A,,Clear,0,2013-01-24 05:55:00
1:15 AM,-5.8,-9.4,84,30.10,10.0,Calm,Calm,-,N/A,,Clear,0,2013-01-24 06:15:00
1:35 AM,-5.8,-9.4,84,30.11,10.0,Calm,Calm,-,N/A,,Clear,0,2013-01-24 06:35:00
1:55 AM,-5.8,-11.2,77,30.11,10.0,Calm,Calm,-,N/A,,Clear,0,2013-01-24 06:55:00
2:15 AM,-5.8,-9999,N/A,30.11,10.0,Calm,Calm,-,N/A,,Clear,0,2013-01-24 07:15:00
2:35 AM,-7.6,-11.2,84,30.11,10.0,Calm,Calm,-,N/A,,Clear,0,2013-01-24 07:35:00
2:55 AM,-7.6,-11.2,84,30.10,10.0,Calm,Calm,-,N/A,,Clear,0,2013-01-24 07:55:00
3:15 AM,-7.6,-13.0,77,30.09,10.0,SW,4.6,-,N/A,,Clear,220,2013-01-24 08:15:00
3:35 AM,-7.6,-11.2,84,30.09,10.0,Calm,Calm,-,N/A,,Clear,0,2013-01-24 08:35:00
3:55 AM,-7.6,-11.2,84,30.09,10.0,Calm,Calm,-,N/A,,Clear,0,2013-01-24 08:55:00
4:15 AM,-9.4,-14.8,77,30.09,10.0,SSW,4.6,-,N/A,,Clear,200,2013-01-24 09:15:00
4:35 AM,-7.6,-14.8,71,30.09,10.0,South,4.6,-,N/A,,Clear,190,2013-01-24 09:35:00
4:55 AM,-7.6,-11.2,84,30.09,10.0,Calm,Calm,-,N/A,,Clear,0,2013-01-24 09:55:00
5:15 AM,-7.6,-11.2,84,30.09,10.0,Calm,Calm,-,N/A,,Clear,0,2013-01-24 10:15:00
5:35 AM,-9.4,-16.6,71,30.09,10.0,SSW,3.5,-,N/A,,Clear,200,2013-01-24 10:35:00
5:55 AM,-9.4,-14.8,77,30.10,10.0,Calm,Calm,-,N/A,,Clear,0,2013-01-24 10:55:00
6:15 AM,-9.4,-14.8,77,30.11,10.0,South,3.5,-,N/A,,Clear,190,2013-01-24 11:15:00
6:35 AM,-9.4,-14.8,77,30.11,10.0,Calm,Calm,-,N/A,,Clear,0,2013-01-24 11:35:00
6:55 AM,-9.4,-14.8,77,30.11,10.0,Calm,Calm,-,N/A,,Clear,0,2013-01-24 11:55:00
7:15 AM,-9.4,-11.2,92,30.12,10.0,Calm,Calm,-,N/A,,Clear,0,2013-01-24 12:15:00
7:35 AM,-9.4,-14.8,77,30.12,10.0,Calm,Calm,-,N/A,,Clear,0,2013-01-24 12:35:00
7:55 AM,-9.4,-14.8,77,30.13,10.0,Calm,Calm,-,N/A,,Clear,0,2013-01-24 12:55:00
8:15 AM,-9.4,-11.2,92,30.13,8.0,Calm,Calm,-,N/A,,Clear,0,2013-01-24 13:15:00
8:35 AM,-7.6,-11.2,84,30.13,9.0,Calm,Calm,-,N/A,,Clear,0,2013-01-24 13:35:00
8:55 AM,-5.8,-7.6,92,30.14,10.0,South,3.5,-,N/A,,Clear,190,2013-01-24 13:55:00
9:15 AM,-2.2,-5.8,85,30.14,10.0,Calm,Calm,-,N/A,,Clear,0,2013-01-24 14:15:00
9:35 AM,-0.4,-5.8,78,30.14,10.0,Calm,Calm,-,N/A,,Clear,0,2013-01-24 14:35:00
9:55 AM,1.4,-7.6,66,30.14,10.0,Calm,Calm,-,N/A,,Clear,0,2013-01-24 14:55:00
10:15 AM,3.2,-5.8,66,30.14,10.0,NNW,10.4,-,N/A,,Clear,330,2013-01-24 15:15:00
10:35 AM,6.8,-4.0,61,30.14,10.0,North,10.4,-,N/A,,Clear,350,2013-01-24 15:35:00
10:55 AM,6.8,-7.6,52,30.13,10.0,North,8.1,-,N/A,,Clear,10,2013-01-24 15:55:00
11:15 AM,8.6,-7.6,48,30.12,10.0,NNW,11.5,-,N/A,,Clear,340,2013-01-24 16:15:00
11:35 AM,10.4,-7.6,44,30.11,10.0,NNW,6.9,17.3,N/A,,Clear,330,2013-01-24 16:35:00
11:55 AM,10.4,-7.6,44,30.11,10.0,North,12.7,17.3,N/A,,Clear,350,2013-01-24 16:55:00
12:15 PM,12.2,-7.6,41,30.10,10.0,NNW,13.8,18.4,N/A,,Clear,340,2013-01-24 17:15:00
12:55 PM,14.0,-7.6,38,30.09,10.0,NNW,13.8,-,N/A,,Clear,340,2013-01-24 17:55:00
1:15 PM,14.0,-9.4,35,30.09,10.0,WNW,11.5,20.7,N/A,,Clear,300,2013-01-24 18:15:00
1:35 PM,14.0,-9.4,35,30.08,10.0,WNW,9.2,-,N/A,,Clear,290,2013-01-24 18:35:00
1:55 PM,14.0,-9.4,35,30.08,10.0,NW,9.2,19.6,N/A,,Clear,310,2013-01-24 18:55:00
2:15 PM,14.0,-9.4,35,30.08,10.0,NW,8.1,20.7,N/A,,Clear,320,2013-01-24 19:15:00
2:35 PM,15.8,-9.4,32,30.09,10.0,North,15.0,23.0,N/A,,Clear,360,2013-01-24 19:35:00
2:55 PM,15.8,-9.4,32,30.09,10.0,WNW,11.5,21.9,N/A,,Clear,300,2013-01-24 19:55:00
3:15 PM,15.8,-9.4,32,30.09,10.0,NW,12.7,17.3,N/A,,Clear,310,2013-01-24 20:15:00
3:35 PM,15.8,-11.2,30,30.10,10.0,NW,16.1,21.9,N/A,,Clear,310,2013-01-24 20:35:00
3:55 PM,15.8,-11.2,30,30.09,10.0,NW,15.0,18.4,N/A,,Clear,310,2013-01-24 20:55:00
4:15 PM,15.8,-11.2,30,30.10,10.0,NW,8.1,17.3,N/A,,Clear,320,2013-01-24 21:15:00
4:35 PM,15.8,-11.2,30,30.10,10.0,NNW,15.0,20.7,N/A,,Clear,330,2013-01-24 21:35:00
4:55 PM,15.8,-11.2,30,30.11,10.0,NW,13.8,18.4,N/A,,Clear,310,2013-01-24 21:55:00
5:15 PM,15.8,-9999,N/A,30.11,10.0,NW,10.4,17.3,N/A,,Clear,320,2013-01-24 22:15:00
5:35 PM,15.8,-13.0,27,30.11,10.0,WNW,10.4,16.1,N/A,,Clear,290,2013-01-24 22:35:00
5:55 PM,14.0,-14.8,27,30.12,10.0,NW,11.5,24.2,N/A,,Clear,310,2013-01-24 22:55:00
6:15 PM,14.0,-14.8,27,30.13,10.0,NNW,13.8,18.4,N/A,,Clear,330,2013-01-24 23:15:00
6:35 PM,14.0,-14.8,27,30.14,10.0,NW,13.8,25.3,N/A,,Clear,320,2013-01-24 23:35:00
6:55 PM,12.2,-14.8,29,30.15,10.0,NW,11.5,20.7,N/A,,Clear,320,2013-01-24 23:55:00
7:15 PM,12.2,-14.8,29,30.16,10.0,NW,10.4,20.7,N/A,,Clear,320,2013-01-25 00:15:00
7:35 PM,12.2,-14.8,29,30.16,10.0,NNW,11.5,-,N/A,,Clear,330,2013-01-25 00:35:00
7:55 PM,12.2,-14.8,29,30.17,10.0,NW,5.8,16.1,N/A,,Clear,320,2013-01-25 00:55:00
8:15 PM,10.4,-14.8,31,30.18,10.0,NNW,10.4,17.3,N/A,,Clear,330,2013-01-25 01:15:00
8:35 PM,10.4,-14.8,31,30.18,10.0,NW,8.1,-,N/A,,Clear,320,2013-01-25 01:35:00
8:55 PM,10.4,-14.8,31,30.19,10.0,NW,11.5,19.6,N/A,,Clear,310,2013-01-25 01:55:00
9:15 PM,10.4,-14.8,31,30.19,10.0,NW,9.2,17.3,N/A,,Clear,320,2013-01-25 02:15:00
9:35 PM,8.6,-14.8,34,30.20,10.0,NW,8.1,23.0,N/A,,Clear,310,2013-01-25 02:35:00
9:55 PM,8.6,-14.8,34,30.20,10.0,NW,10.4,18.4,N/A,,Clear,310,2013-01-25 02:55:00
10:15 PM,8.6,-14.8,34,30.19,10.0,WNW,10.4,20.7,N/A,,Clear,300,2013-01-25 03:15:00
10:35 PM,8.6,-11.2,40,30.21,10.0,West,8.1,-,N/A,,Clear,280,2013-01-25 03:35:00
10:55 PM,8.6,-13.0,37,30.22,10.0,West,3.5,-,N/A,,Clear,280,2013-01-25 03:55:00
11:15 PM,6.8,-13.0,40,30.23,10.0,WNW,4.6,-,N/A,,Clear,290,2013-01-25 04:15:00
11:35 PM,6.8,-13.0,40,30.23,10.0,Calm,Calm,-,N/A,,Clear,0,2013-01-25 04:35:00
11:55 PM,6.8,-11.2,44,30.22,10.0,NNW,5.8,-,N/A,,Clear,340,2013-01-25 04:55:00